Weather in Bracknell

United Kingdom     51°24′17″N   0°44′59″E
temp.,
°C
wind,
m/s
gust,
m/s
humid.,
%
clouds,
%
prec.,
mm/h
press.,
hPa
HPBL,
m
24 july, sat
sat2401:00+16ene71376100 0.0 1011552
04:00+15ene7158261 0.1 1009515
07:00+15ene51192100 4.6 1008657
10:00+17ene5992100 2.8 1008800
13:00+18e4788100 3.6 1008552
16:00+20e3479100 0.8 1008606
19:00+20ese238345 2.1 1007152
22:00+17ene2291100 1.7 100822
25 july, sun
sun2501:00+16ne4696100 1.9 1007220
04:00+15nne3796100 0.1 1007280
07:00+16nne479798 0.2 1007360
10:00+17n4588100 0.1 1008681
13:00+18n568297 0.4 1008696
16:00+20n457766 1.5 1008823
19:00+19n258342 4.6 1008331
22:00+16nw118869 0.6 100911
26 july, mon
mon2601:00+17w1186100 0.6 101011
04:00+16w259099 0.0 1009111
07:00+16wnw23855 0.0 1010107
10:00+20wsw34724 0.0 1011679
13:00+23sw455514 0.1 10101621
16:00+24w464987 0.0 10091983
19:00+20wsw5880100 1.3 1009314
22:00+17wsw369096 1.0 1010137
27 july, tue
tue2701:00+16sw2495100 1.2 101087
04:00+15sw259698 0.0 1010132
07:00+16ssw239598 0.1 1010153
10:00+20sw347311 0.5 1009530
13:00+22sw676254 4.9 10101298
16:00+23ssw655376 0.2 10091846
19:00+20ssw467562 1.1 1008704
22:00+16ssw3891100 0.4 1009232
28 july, wed
wed2801:00+14sw499599 0.4 1008336
04:00+13wsw51095100 0.0 1007381
07:00+13sw410890 0.0 1008401
10:00+18wsw796815 0.1 10081148
13:00+20sw9115971 0.4 10071816
16:00+18sw9137499 1.6 10071453
19:00+16sw813770 3.0 10071112
22:00+12sw411890 0.3 1008344